Regional Weather Roundup
Issued by NWS

Home | Current Version | Previous Version | Graphics & Text | Print | Product List | Glossary On
Versions: 1 2 3 4 5 6 7 8 9 10 11 12 13 14 15 16 17 18 19 20 21 22 23 24 25 26 27 28 29 30 31 32 33 34 35 36 37 38 39 40 41 42 43 44 45 46 47 48 49 50
041
ASUS44 KJAN 281003
RWRMS

MISSISSIPPI HOURLY WEATHER ROUNDUP
NATIONAL WEATHER SERVICE JACKSON MS
500 AM CDT SAT MAR 28 2015

NOTE: "FAIR: INDICATES FEW OR NO CLOUDS BELOW 12,000 FEET WITH NO
SIGNIFICANT WEATHER AND/OR OBSTRUCTIONS TO VISIBILITY.

MSZ001>002-007>008-010>013-018>021-025>028-034>036-281100-
NORTHWEST MISSISSIPPI

CITY           SKY/WX    TMP DP  RH WIND       PRES   REMARKS
CLARKSDALE     CLOUDY    37  32  81 NE6       30.21S WCI  33
CLEVELAND      PTSUNNY   40  34  80 E5        30.20S
GREENWOOD      PTCLDY    39  28  64 E5        30.21R
GREENVILLE     CLEAR     38  35  89 CALM      30.19F
OLIVE BRANCH   CLOUDY    34  27  75 CALM      30.21R
OXFORD         FAIR      32  28  86 CALM      30.22R
TUNICA         MOSUNNY   37  28  70 E5        30.22S WCI  34
$$

MSZ003>006-009-014>017-022>024-029>033-037>039-281100-
NORTHEAST MISSISSIPPI

CITY           SKY/WX    TMP DP  RH WIND       PRES   REMARKS
COLUMBUS AFB   MOCLDY    36  28  71 NW2       30.19R
CORINTH        CLOUDY    32  27  80 CALM      30.18R
GOLDN TRIANGLE MOCLDY    37  28  70 N5        30.18R WCI  34
STARKVILLE     CLOUDY    36  32  87 CALM      30.20R
TUPELO         PTCLDY    33  27  78 N3        30.20R
$$

MSZ040-058-281100-
CENTRAL MISSISSIPPI

CITY           SKY/WX    TMP DP  RH WIND       PRES   REMARKS
JACKSON INTL   PTCLDY    38  35  89 CALM      30.19R
JACKSON HAWKNS CLEAR     40  35  83 CALM      30.20R
MERIDIAN KEY   CLEAR     36  34  92 NW5       30.19R WCI  32
MERIDIAN NAS   NOT AVBL
RAYMOND        FAIR      37  34  87 CALM      30.19R HAZE
VICKSBURG      CLEAR     38  36  92 CALM      30.20R
$$

MSZ059>079-281100-
SOUTH MISSISSIPPI

CITY           SKY/WX    TMP DP  RH WIND       PRES   REMARKS
BROOKHAVEN       N/A     36  36 100 CALM      30.18F
HATTIESBURG    CLEAR     41  38  89 CALM      30.19R
MCCOMB         CLEAR     39  37  92 CALM      30.17S
NATCHEZ        CLEAR     39  36  87 CALM      30.17F
PINE BELT      CLEAR     37  34  87 CALM      30.18S
$$

MSZ080>082-281100-
COASTAL MISSISSIPPI

CITY           SKY/WX    TMP DP  RH WIND       PRES   REMARKS
BILOXI         CLEAR     46  37  71 NE6       30.18R
PASCAGOULA     CLEAR     40  38  93 CALM      30.19R
GULFPORT       CLEAR     46  36  68 N3        30.18R
$$



USA.gov is the U.S. government's official web portal to all federal, state and local government web resources and services.